Weather History for Gainesville, FL

Change the Weather History Date:

Tuesday, January 1, 2013

  Actual Average Record
Temperature  
Mean Temperature 61 °F 54 °F  
Max Temperature 76 °F 66 °F 84 °F (1975)
Min Temperature 45 °F 42 °F 18 °F (1918)
Degree Days  
Heating Degree Days 4 11  
Month to date heating degree days 4 11  
Since 1 July heating degree days 396 468  
Cooling Degree Days 0 0  
Month to date cooling degree days 0 0  
Year to date cooling degree days 0 0  
Growing Degree Days 10 (Base 50)    
Moisture  
Dew Point 51 °F    
Average Humidity 73    
Maximum Humidity 100    
Minimum Humidity 46    
Precipitation  
Precipitation 0.00 in 0.08 in 1.25 in (1994)
Month to date precipitation 0.00 0.08  
Year to date precipitation 0.00 0.08  
Snow  
Snow 0.00 in 0.00 in 0.00 in ()
Month to date snowfall 0.0 0.0  
Since 1 July snowfall 0.0 0.0  
Snow Depth 0.00 in    
Sea Level Pressure  
Sea Level Pressure 30.13 in    
Wind  
Wind Speed 6 mph (SW)    
Max Wind Speed 17 mph    
Max Gust Speed 24 mph    
Visibility 8 miles    
Events Fog    
T = Trace of Precipitation, MM = Missing Value Source: NWS Daily Summary

Daily Weather History Graph

Daily Weather History Graph

Search for Another Location

Airport:

Trip Planner

Search our weather history database for the weather conditions in past years. The results will help you decide how hot, cold, wet, or windy it might be!

Date:

Astronomy

Jan. 01, 2013 Rise Set
Actual Time 7:24 AM EST 5:41 PM EST
Civil Twilight 6:58 AM EST 6:07 PM EST
Nautical Twilight 6:28 AM EST 6:37 PM EST
Astronomical Twilight 5:59 AM EST 7:06 PM EST
Moon 9:50 PM EST 9:54 AM EST
Length of Visible Light 11h 09m
Length of Day
10h 17m
Waning Gibbous, 83% of the Moon is Illuminated
Jan 1
Waning Gibbous
Jan 4
Last Quarter
Jan 11
New
Jan 18
First Quarter
Jan 26
Full

Hourly Weather History & Observations

Time (EST) Temp. Dew Point Humidity Pressure Visibility Wind Dir Wind Speed Gust Speed Precip Events Conditions
12:53 AM 48.9 °F 46.9 °F 93% 30.21 in 9.0 mi Calm Calm - N/A   Scattered Clouds
1:53 AM 48.0 °F 46.9 °F 96% 30.20 in 6.0 mi Calm Calm - N/A   Overcast
2:24 AM 46.4 °F 44.6 °F 93% 30.19 in 1.8 mi Calm Calm - N/A   Overcast
2:37 AM 46.4 °F 46.4 °F 100% 30.18 in 0.5 mi Calm Calm - N/A Fog Fog
2:53 AM 46.9 °F 46.0 °F 97% 30.18 in 1.0 mi Calm Calm - N/A   Overcast
3:15 AM 44.6 °F 44.6 °F 100% 30.18 in 3.0 mi Calm Calm - N/A   Overcast
3:24 AM 46.4 °F 44.6 °F 93% 30.17 in 3.0 mi Calm Calm - N/A   Overcast
3:53 AM 46.0 °F 45.0 °F 96% 30.17 in 7.0 mi Calm Calm - N/A   Overcast
4:53 AM 48.9 °F 46.9 °F 93% 30.17 in 9.0 mi Calm Calm - N/A   Overcast
5:53 AM 51.1 °F 48.9 °F 92% 30.17 in 10.0 mi Calm Calm - N/A   Overcast
6:53 AM 52.0 °F 50.0 °F 93% 30.16 in 8.0 mi Calm Calm - N/A   Overcast
7:53 AM 54.0 °F 52.0 °F 93% 30.17 in 7.0 mi South 3.5 mph - N/A   Overcast
8:53 AM 60.1 °F 55.0 °F 83% 30.17 in 10.0 mi SSW 4.6 mph - N/A   Overcast
9:53 AM 66.0 °F 55.0 °F 68% 30.17 in 10.0 mi SSW 6.9 mph - N/A   Scattered Clouds
10:53 AM 70.0 °F 54.0 °F 57% 30.16 in 10.0 mi SSW 11.5 mph 18.4 mph N/A   Clear
11:53 AM 72.0 °F 54.0 °F 53% 30.14 in 10.0 mi SSW 15.0 mph 20.7 mph N/A   Partly Cloudy
12:53 PM 75.0 °F 54.0 °F 48% 30.11 in 10.0 mi WSW 15.0 mph 19.6 mph N/A   Overcast
2:53 PM 73.9 °F 54.0 °F 50% 30.07 in 10.0 mi West 15.0 mph 20.7 mph N/A   Overcast
3:53 PM 73.0 °F 54.0 °F 51% 30.07 in 10.0 mi WSW 15.0 mph - N/A   Overcast
4:53 PM 71.1 °F 54.0 °F 55% 30.07 in 10.0 mi WSW 9.2 mph - N/A   Overcast
6:53 PM 64.9 °F 55.0 °F 70% 30.06 in 10.0 mi SW 4.6 mph - N/A   Mostly Cloudy
7:53 PM 64.0 °F 55.0 °F 73% 30.06 in 10.0 mi SSW 4.6 mph - N/A   Clear
8:53 PM 60.1 °F 55.0 °F 83% 30.06 in 10.0 mi SSW 4.6 mph - N/A   Clear
9:53 PM 62.1 °F 55.0 °F 78% 30.06 in 10.0 mi SW 4.6 mph - N/A   Clear
10:53 PM 61.0 °F 55.0 °F 81% 30.06 in 10.0 mi SW 4.6 mph - N/A   Clear
11:53 PM 60.1 °F 55.0 °F 83% 30.04 in 10.0 mi SSW 4.6 mph - N/A   Clear